| time (UTC) | temp C | wind direction | speed KPH | gust KPH | rain 1hr cm | rain 24hr cm | rain mn cm | humidity % | barometer mb |
| 20260507044514 | 12 | 255 | 4.8 | 12.9 | 0.00 | 0.00 | 0.00 | 81 | 1010.3 |
| 20260507043018 | 13 | 232 | 6.4 | 12.9 | 0.00 | 0.00 | 0.00 | 80 | 1010.3 |
| 20260507041530 | 13 | 234 | 9.7 | 16.1 | 0.00 | 0.00 | 0.00 | 80 | 1010.4 |
| 20260507040007 | 13 | 238 | 9.7 | 19.3 | 0.00 | 0.00 | 0.00 | 80 | 1010.3 |
| 20260507034515 | 13 | 235 | 8.0 | 14.5 | 0.00 | 0.00 | 0.00 | 81 | 1010.4 |
| 20260507033018 | 13 | 215 | 9.7 | 16.1 | 0.00 | 0.00 | 0.00 | 80 | 1010.5 |
| 20260507031526 | 13 | 236 | 8.0 | 16.1 | 0.00 | 0.00 | 0.00 | 81 | 1010.7 |
| 20260507030025 | 13 | 214 | 6.4 | 12.9 | 0.00 | 0.00 | 0.00 | 81 | 1010.8 |
| 20260507024512 | 13 | 246 | 8.0 | 16.1 | 0.00 | 0.00 | 0.00 | 80 | 1010.8 |
| 20260507023015 | 13 | 257 | 9.7 | 17.7 | 0.00 | 0.00 | 0.00 | 80 | 1010.7 |
| 20260507021518 | 13 | 244 | 11.3 | 16.1 | 0.00 | 0.00 | 0.00 | 81 | 1010.7 |
| 20260507020023 | 13 | 240 | 9.7 | 16.1 | 0.00 | 0.00 | 0.00 | 81 | 1010.8 |
| 20260507014538 | 13 | 256 | 9.7 | 17.7 | 0.00 | 0.00 | 0.00 | 81 | 1010.9 |
| 20260507013021 | 13 | 223 | 11.3 | 19.3 | 0.00 | 0.00 | 0.00 | 82 | 1011.0 |
| 20260507011521 | 12 | 246 | 8.0 | 16.1 | 0.00 | 0.00 | 0.00 | 83 | 1011.1 |
| 20260507010022 | 12 | 270 | 8.0 | 14.5 | 0.00 | 0.00 | 0.00 | 82 | 1011.1 |
| 20260507004534 | 12 | 279 | 8.0 | 12.9 | 0.00 | 0.00 | 0.00 | 82 | 1011.2 |
| 20260507003009 | 12 | 271 | 6.4 | 12.9 | 0.00 | 0.00 | 0.00 | 81 | 1011.2 |
| 20260507001520 | 13 | 277 | 8.0 | 17.7 | 0.00 | 0.00 | 0.00 | 81 | 1011.3 |
| 20260507000025 | 13 | 277 | 9.7 | 19.3 | 0.00 | 0.00 | 0.00 | 80 | 1011.4 |
| 20260506234534 | 13 | 275 | 11.3 | 19.3 | 0.00 | 0.00 | 0.00 | 79 | 1011.4 |
| 20260506233026 | 13 | 267 | 11.3 | 19.3 | 0.00 | 0.00 | 0.00 | 79 | 1011.6 |
| 20260506231528 | 14 | 274 | 12.9 | 24.1 | 0.00 | 0.00 | 0.00 | 78 | 1011.6 |
| 20260506230015 | 14 | 269 | 12.9 | 22.5 | 0.00 | 0.00 | 0.00 | 77 | 1011.6 |
| 20260506224522 | 14 | 259 | 14.5 | 22.5 | 0.00 | 0.00 | 0.00 | 78 | 1011.7 |
| 20260506223042 | 14 | 228 | 11.3 | 20.9 | 0.00 | 0.00 | 0.00 | 80 | 1011.6 |
| 20260506221528 | 14 | 235 | 11.3 | 20.9 | 0.00 | 0.00 | 0.00 | 80 | 1011.7 |
| 20260506220012 | 15 | 245 | 19.3 | 24.1 | 0.00 | 0.00 | 0.00 | 78 | 1011.7 |
| 20260506214520 | 15 | 230 | 14.5 | 30.6 | 0.00 | 0.00 | 0.00 | 77 | 1011.7 |
| 20260506213021 | 15 | 257 | 12.9 | 29.0 | 0.00 | 0.00 | 0.00 | 77 | 1011.6 |
| 20260506211537 | 15 | 238 | 14.5 | 29.0 | 0.00 | 0.00 | 0.00 | 76 | 1011.5 |
| 20260506210033 | 15 | 216 | 17.7 | 32.2 | 0.00 | 0.00 | 0.00 | 76 | 1011.5 |
| 20260506204516 | 15 | 229 | 19.3 | 32.2 | 0.00 | 0.00 | 0.00 | 78 | 1011.4 |
| 20260506203026 | 15 | 223 | 19.3 | 29.0 | 0.00 | 0.00 | 0.00 | 79 | 1011.3 |
| 20260506201506 | 15 | 209 | 17.7 | 29.0 | 0.00 | 0.00 | 0.00 | 80 | 1011.2 |
| 20260506200011 | 15 | 252 | 19.3 | 35.4 | 0.00 | 0.00 | 0.00 | 79 | 1011.2 |
| 20260506194516 | 15 | 224 | 14.5 | 32.2 | 0.00 | 0.00 | 0.00 | 79 | 1011.2 |
| 20260506193020 | 15 | 219 | 17.7 | 33.8 | 0.00 | 0.00 | 0.00 | 80 | 1011.2 |
| 20260506191526 | 15 | 231 | 19.3 | 32.2 | 0.00 | 0.00 | 0.00 | 81 | 1011.1 |
| 20260506190008 | 15 | 186 | 19.3 | 33.8 | 0.00 | 0.00 | 0.00 | 79 | 1011.0 |
| 20260506184511 | 16 | 212 | 17.7 | 37.0 | 0.00 | 0.00 | 0.00 | 78 | 1010.9 |
| 20260506183027 | 16 | 191 | 19.3 | 37.0 | 0.00 | 0.00 | 0.00 | 76 | 1010.8 |
| 20260506181523 | 16 | 222 | 17.7 | 37.0 | 0.00 | 0.00 | 0.00 | 76 | 1010.9 |
| 20260506180027 | 16 | 204 | 16.1 | 33.8 | 0.00 | 0.00 | 0.00 | 75 | 1011.0 |
| 20260506174512 | 16 | 199 | 20.9 | 33.8 | 0.00 | 0.00 | 0.00 | 73 | 1011.2 |
| 20260506173017 | 17 | 201 | 16.1 | 30.6 | 0.00 | 0.00 | 0.00 | 73 | 1011.3 |
| 20260506171529 | 17 | 229 | 17.7 | 37.0 | 0.00 | 0.00 | 0.00 | 72 | 1011.5 |
| 20260506170024 | 17 | 194 | 16.1 | 38.6 | 0.00 | 0.00 | 0.00 | 71 | 1011.6 |
| 20260506164528 | 17 | 238 | 16.1 | 33.8 | 0.00 | 0.00 | 0.00 | 70 | 1011.7 |
| 20260506163014 | 17 | 211 | 20.9 | 37.0 | 0.00 | 0.00 | 0.00 | 68 | 1011.6 |
| 20260506161518 | 17 | 217 | 19.3 | 33.8 | 0.00 | 0.00 | 0.00 | 68 | 1011.6 |
| 20260506160024 | 17 | 190 | 22.5 | 33.8 | 0.00 | 0.00 | 0.00 | 69 | 1011.8 |
| 20260506154532 | 17 | 210 | 24.1 | 32.2 | 0.00 | 0.00 | 0.00 | 67 | 1011.9 |
| 20260506153011 | 17 | 186 | 24.1 | 40.2 | 0.00 | 0.00 | 0.00 | 67 | 1011.9 |
| 20260506151517 | 18 | 204 | 17.7 | 35.4 | 0.00 | 0.00 | 0.00 | 70 | 1012.0 |
| 20260506150022 | 18 | 217 | 17.7 | 29.0 | 0.00 | 0.00 | 0.00 | 69 | 1012.3 |
| 20260506144526 | 18 | 195 | 16.1 | 29.0 | 0.00 | 0.00 | 0.00 | 66 | 1012.5 |
| 20260506143033 | 18 | 242 | 14.5 | 30.6 | 0.00 | 0.00 | 0.00 | 67 | 1012.7 |
| 20260506141514 | 18 | 176 | 16.1 | 33.8 | 0.00 | 0.00 | 0.00 | 65 | 1012.7 |
| 20260506140020 | 17 | 240 | 16.1 | 32.2 | 0.00 | 0.00 | 0.00 | 68 | 1012.9 |
| 20260506134524 | 18 | 207 | 11.3 | 33.8 | 0.00 | 0.00 | 0.00 | 71 | 1013.0 |
| 20260506133029 | 17 | 204 | 22.5 | 33.8 | 0.00 | 0.00 | 0.00 | 71 | 1013.1 |
| 20260506131532 | 17 | 209 | 20.9 | 37.0 | 0.00 | 0.00 | 0.00 | 70 | 1013.2 |
| 20260506130020 | 17 | 207 | 19.3 | 38.6 | 0.00 | 0.00 | 0.00 | 70 | 1013.2 |
| 20260506124524 | 17 | 181 | 17.7 | 33.8 | 0.00 | 0.00 | 0.00 | 74 | 1013.4 |
| 20260506123031 | 17 | 208 | 22.5 | 33.8 | 0.00 | 0.00 | 0.00 | 72 | 1013.6 |
| 20260506121527 | 17 | 209 | 14.5 | 30.6 | 0.00 | 0.00 | 0.00 | 74 | 1013.8 |
| 20260506120018 | 17 | 215 | 19.3 | 30.6 | 0.00 | 0.00 | 0.00 | 73 | 1014.0 |
| 20260506114521 | 17 | 237 | 17.7 | 29.0 | 0.00 | 0.00 | 0.00 | 75 | 1014.2 |
| 20260506113015 | 17 | 232 | 16.1 | 27.4 | 0.00 | 0.00 | 0.00 | 69 | 1014.3 |
| 20260506111509 | 17 | 180 | 11.3 | 27.4 | 0.00 | 0.00 | 0.00 | 70 | 1014.4 |
| 20260506110014 | 16 | 204 | 12.9 | 27.4 | 0.00 | 0.00 | 0.00 | 71 | 1014.5 |
| 20260506104520 | 17 | 198 | 11.3 | 24.1 | 0.00 | 0.00 | 0.00 | 71 | 1014.5 |
| 20260506103010 | 16 | 184 | 14.5 | 22.5 | 0.00 | 0.00 | 0.00 | 72 | 1014.6 |
| 20260506101506 | 16 | 255 | 16.1 | 29.0 | 0.00 | 0.00 | 0.00 | 72 | 1014.4 |
| 20260506100011 | 16 | 244 | 14.5 | 25.7 | 0.00 | 0.00 | 0.00 | 72 | 1014.4 |
| 20260506094520 | 16 | 251 | 17.7 | 24.1 | 0.00 | 0.00 | 0.00 | 74 | 1014.5 |
| 20260506093023 | 16 | 256 | 14.5 | 24.1 | 0.00 | 0.00 | 0.00 | 73 | 1014.5 |
| 20260506091514 | 16 | 238 | 17.7 | 22.5 | 0.00 | 0.00 | 0.00 | 73 | 1014.5 |
| 20260506090015 | 15 | 254 | 14.5 | 22.5 | 0.00 | 0.00 | 0.00 | 75 | 1014.4 |
| 20260506084515 | 15 | 241 | 11.3 | 25.7 | 0.00 | 0.00 | 0.00 | 76 | 1014.3 |
| 20260506083022 | 15 | 273 | 12.9 | 22.5 | 0.00 | 0.00 | 0.00 | 77 | 1014.4 |
| 20260506081524 | 15 | 254 | 14.5 | 22.5 | 0.00 | 0.00 | 0.00 | 78 | 1014.5 |
| 20260506073018 | 13 | 228 | 14.5 | 20.9 | 0.00 | 0.00 | 0.00 | 84 | 1014.6 |
| 20260506071522 | 13 | 269 | 11.3 | 19.3 | 0.00 | 0.00 | 0.00 | 86 | 1014.5 |
| 20260506061540 | 11 | 281 | 8.0 | 11.3 | 0.00 | 0.00 | 0.00 | 89 | 1014.5 |